TimeGMT,TemperatureF,Dew PointF,Humidity,Sea Level PressureIn,VisibilityMPH,Wind Direction,Wind SpeedMPH,Gust SpeedMPH,PrecipitationIn,Events,Conditions,WindDirDegrees,DateUTC
12:50 AM,41.0,37.4,87,29.47,5.0,NNE,15.0,-,N/A,Rain,Rain,30,2012-11-26 00:50:00
1:50 AM,41.0,37.4,87,29.47,6.2,NNE,19.6,-,N/A,Rain,Rain,20,2012-11-26 01:50:00
2:50 AM,42,38,79,29.49,7,NNE,21.9,,,Rain,Rain,30,2012-11-26 02:50:00
2:50 AM,41.0,37.4,87,29.47,6.2,NNE,21.9,-,N/A,Rain,Rain,30,2012-11-26 02:50:00
3:50 AM,41.0,37.4,87,29.47,5.0,NNE,21.9,-,N/A,Rain,Rain,30,2012-11-26 03:50:00
4:50 AM,41.0,37.4,87,29.50,5.0,NNE,20.7,32.2,N/A,Rain,Rain,30,2012-11-26 04:50:00
5:20 AM,42.8,37.4,81,29.50,5.0,NNE,19.6,-,N/A,Rain,Rain,30,2012-11-26 05:20:00
5:50 AM,42,38,82,29.54,4,NNE,17.3,,,Rain,Rain,30,2012-11-26 05:50:00
5:50 AM,42.8,39.2,87,29.53,4.3,NNE,17.3,-,N/A,Rain,Rain,30,2012-11-26 05:50:00
6:20 AM,42.8,39.2,87,29.53,4.3,NNE,18.4,-,N/A,Rain,Rain,20,2012-11-26 06:20:00
6:50 AM,42.8,39.2,87,29.53,5.6,NNE,18.4,-,N/A,Rain,Rain,20,2012-11-26 06:50:00
7:20 AM,42.8,39.2,87,29.56,5.0,NNE,20.7,-,N/A,Rain,Rain,20,2012-11-26 07:20:00
7:50 AM,42.8,39.2,87,29.56,6.2,NNE,20.7,-,N/A,Rain,Rain,20,2012-11-26 07:50:00
8:20 AM,42.8,39.2,87,29.59,6.2,Variable,19.6,-,N/A,Rain,Rain,0,2012-11-26 08:20:00
8:50 AM,43,39,81,29.61,8,North,20.7,,,Rain,Rain,10,2012-11-26 08:50:00
8:50 AM,42.8,39.2,87,29.59,6.2,North,20.7,-,N/A,Rain,Rain,10,2012-11-26 08:50:00
9:20 AM,42.8,39.2,87,29.62,6.2,North,19.6,-,N/A,Rain,Rain,10,2012-11-26 09:20:00
9:50 AM,42.8,39.2,87,29.62,6.2,North,20.7,-,N/A,Rain,Rain,10,2012-11-26 09:50:00
10:20 AM,42.8,39.2,87,29.62,6.2,North,19.6,-,N/A,Rain,Rain,10,2012-11-26 10:20:00
10:50 AM,42.8,39.2,87,29.65,6.2,North,17.3,-,N/A,Rain,Light Rain,10,2012-11-26 10:50:00
11:20 AM,42.8,39.2,87,29.65,6.2,North,17.3,-,N/A,Rain,Light Rain,360,2012-11-26 11:20:00
11:50 AM,44,39,76,29.66,12,North,17.3,,,Rain,Light Rain,10,2012-11-26 11:50:00
11:50 AM,44.6,39.2,81,29.65,6.2,North,17.3,-,N/A,Rain,Light Rain,10,2012-11-26 11:50:00
12:20 PM,44.6,39.2,81,29.65,6.2,North,19.6,-,N/A,Rain,Light Rain,10,2012-11-26 12:20:00
12:50 PM,44.6,39.2,81,29.65,6.2,North,18.4,-,N/A,Rain,Light Rain,10,2012-11-26 12:50:00
1:20 PM,44.6,37.4,76,29.65,6.2,North,17.3,-,N/A,Rain,Light Rain,360,2012-11-26 13:20:00
1:50 PM,44.6,37.4,76,29.65,6.2,North,16.1,-,N/A,,Partly Cloudy,360,2012-11-26 13:50:00
2:20 PM,44.6,37.4,76,29.68,6.2,North,18.4,-,N/A,,Partly Cloudy,360,2012-11-26 14:20:00
2:50 PM,45,37,64,29.70,25,North,18.4,,,,Partly Cloudy,0,2012-11-26 14:50:00
2:50 PM,44.6,37.4,76,29.68,6.2,North,18.4,29.9,N/A,,Mostly Cloudy,360,2012-11-26 14:50:00
3:20 PM,44.6,35.6,71,29.68,6.2,North,20.7,33.4,N/A,,Partly Cloudy,360,2012-11-26 15:20:00
3:50 PM,44.6,35.6,71,29.68,6.2,North,21.9,-,N/A,,Partly Cloudy,360,2012-11-26 15:50:00
4:20 PM,44.6,35.6,71,29.68,6.2,Variable,21.9,-,N/A,,Partly Cloudy,0,2012-11-26 16:20:00
4:50 PM,44.6,35.6,71,29.71,6.2,North,21.9,34.5,N/A,,Partly Cloudy,360,2012-11-26 16:50:00
5:20 PM,44.6,35.6,71,29.71,6.2,North,19.6,-,N/A,,Partly Cloudy,360,2012-11-26 17:20:00
5:50 PM,46,35,56,29.74,31,North,19.6,,,,Partly Cloudy,0,2012-11-26 17:50:00
5:50 PM,46.4,35.6,66,29.71,6.2,North,19.6,-,N/A,,Partly Cloudy,360,2012-11-26 17:50:00
6:50 PM,44.6,33.8,66,29.74,6.2,North,20.7,-,N/A,,Partly Cloudy,350,2012-11-26 18:50:00
7:20 PM,44.6,33.8,66,29.74,6.2,North,20.7,-,N/A,,Partly Cloudy,360,2012-11-26 19:20:00
7:50 PM,46.4,33.8,62,29.74,6.2,North,20.7,33.4,N/A,,Partly Cloudy,360,2012-11-26 19:50:00
8:20 PM,46.4,35.6,66,29.77,6.2,North,18.4,-,N/A,,Partly Cloudy,360,2012-11-26 20:20:00
8:50 PM,46,35,53,29.78,31,North,20.7,,,,Scattered Clouds,0,2012-11-26 20:50:00
8:50 PM,46.4,33.8,62,29.77,6.2,North,20.7,32.2,N/A,,Partly Cloudy,360,2012-11-26 20:50:00
9:50 PM,44.6,35.6,71,29.77,6.2,North,19.6,31.1,N/A,,Partly Cloudy,360,2012-11-26 21:50:00
10:50 PM,44.6,35.6,71,29.77,6.2,North,18.4,-,N/A,,Partly Cloudy,350,2012-11-26 22:50:00
11:50 PM,45,35,59,29.78,25,North,21.9,,,,Partly Cloudy,350,2012-11-26 23:50:00
11:50 PM,44.6,35.6,71,29.77,6.2,North,21.9,33.4,N/A,,Partly Cloudy,350,2012-11-26 23:50:00